STARLINK-5076, 55401

Orbit data source: Space-Track

STARLINK-5076, 55401 is a payload satellite owned by SpaceX/Seattle (US) in LEO that was launched on Tue, 31 Jan 2023 UTC via an FALCON 9 launch vehicle from the Air Force Western Test Range (AFWTR). Payload-class satellites include a variety of spacecraft equipped with specific instruments for various scientific and technological missions. These include communications satellites like Starlink; space stations such as the ISS; scientific satellites like the Hubble; Earth observation satellites from companies like Planet Labs, Umbra, and HawkEye 360; GPS; miniature CubeSats for education and research; and military/defense satellites.

Loading next visibility...
Identifier
55401, 2023-014L
Orbit
LEO
Country
Flag of USUS
Related business
Manufacturer
SpaceX/Seattle
Mission
Operational Commercial Communications
Bus & Motor
STARLINK, Unknown motor
Mass
305 kg wet, ~290 kg dry
Launch date (UTC)
2023-01-31 (3 years ago)
Launch vehicle
FALCON 9
Launch site
Air Force Western Test Range (AFWTR)
Object type
Payload
Rocket body
Debris
Shape & HBR
Box + 1 Pan, 10.1 m
Radar Cross Section
13.562 m², Large (>1 m²)

Expand to show TLE details & history
Last TLE update: 2 days ago

TLE from 2 days ago
0 STARLINK-5076
1 55401U 23014L   26171.34431021 -.00000019  00000-0  62266-5 0  9998
2 55401  69.9995 165.5623 0003879 264.9676  95.1040 14.98330600187435
Epoch: 2026-06-20T08:15Z
TLE epoch observation values (Epoch: 2026-06-20T08:15:48.402Z)
Latitude
-0.00004°
Longitude
133.05033°
Altitude
574.719 km
Speed
7.574 km/s
True Right ascension
11h 02m 14s
True Declination
0° 00' 00"
Sunlit
Object was in daylight at epoch
Visualization orbit readout
Latitude
Unknown
Longitude
Unknown
Altitude
Unknown
Speed
Unknown
Apparent Right ascension
Unknown
Apparent Declination
Unknown
Sunlit
N/A
Visualization observer readout
Local Sidereal Time
21:28:42
Azimuth
Unknown
Elevation
Unknown
Doppler factor
Unknown
Orbital elements
Apogee altitude
572.698 km
Perigee altitude
567.307 km
Semi-major axis
6,948.139 km
Eccentricity
0.00039
Inclination
69.9995°
RAAN
165.5623°
Arg. of periapsis
264.9676°
True anomaly
95.14827°
Mean anomaly
95.104°
Eccentric anomaly
95.12614°
Mean motion
3.74749 °/min
Orbital period
96.06 mins
BSTAR
0.0000062266
Loading maneuver chart data...
Computing Atmospheric mass density...

Documentation

Showing up to 5 results
|